This is the latest recevied weather packets stored in our database for station/object KC2GYU. If no packets are shown the sender has not sent any weather packets the latest 10 day(s).
| Time | Temp. | Humidity | Pressure | Rain* | Wind** | Luminosity | Snow |
|---|---|---|---|---|---|---|---|
| 1778080874 | 18.89° C | 85% | 1012.1 hPa | 0 mm | - | 340 W/m² | - |
| 1778080573 | 19.44° C | 85% | 1012.2 hPa | 0 mm | - | 363 W/m² | - |
| 1778080269 | 18.89° C | 85% | 1012.1 hPa | 0 mm | - | 330 W/m² | - |
| 1778079966 | 18.89° C | 85% | 1012 hPa | 0 mm | - | 316 W/m² | - |
| 1778079663 | 18.89° C | 85% | 1012.1 hPa | 0 mm | - | 298 W/m² | - |
| 1778079360 | 20° C | 84% | 1012.3 hPa | 0 mm | - | 239 W/m² | - |
| 1778079057 | 20° C | 84% | 1011.9 hPa | 0 mm | - | 379 W/m² | - |
| 1778078753 | 19.44° C | 84% | 1012 hPa | 0 mm | - | 390 W/m² | - |
| 1778078450 | 19.44° C | 85% | 1012.4 hPa | 0 mm | - | 355 W/m² | - |
| 1778078148 | 18.89° C | 86% | 1012.4 hPa | 0 mm | - | 341 W/m² | - |
| 1778077847 | 18.89° C | 86% | 1012.3 hPa | 0 mm | - | 338 W/m² | - |
| 1778077544 | 18.89° C | 85% | 1012.2 hPa | 0 mm | - | 337 W/m² | - |
| 1778077242 | 18.89° C | 84% | 1012.1 hPa | 0 mm | - | 364 W/m² | - |
| 1778076939 | 18.89° C | 86% | 1012.2 hPa | 0 mm | - | 333 W/m² | - |
| 1778076638 | 18.89° C | 85% | 1012.3 hPa | 0 mm | - | 278 W/m² | - |
| 1778076335 | 18.89° C | 85% | 1012.2 hPa | 0 mm | - | 460 W/m² | - |
| 1778076032 | 19.44° C | 84% | 1012.2 hPa | 0 mm | - | 333 W/m² | - |
| 1778075729 | 19.44° C | 84% | 1012.2 hPa | 0 mm | - | 536 W/m² | - |
| 1778075425 | 18.89° C | 85% | 1012 hPa | 0 mm | - | 544 W/m² | - |
| 1778075121 | 18.33° C | 87% | 1012.3 hPa | 0 mm | - | 350 W/m² | - |
| 1778074817 | 18.33° C | 86% | 1012.1 hPa | 0 mm | - | 261 W/m² | - |
| 1778074515 | 17.78° C | 87% | 1012.3 hPa | 0 mm | - | 327 W/m² | - |
| 1778074212 | 17.78° C | 88% | 1012.3 hPa | 0 mm | - | 279 W/m² | - |
| 1778073909 | 17.78° C | 88% | 1012.3 hPa | 0 mm | - | 221 W/m² | - |
| 1778073606 | 18.33° C | 87% | 1012.4 hPa | 0 mm | - | 222 W/m² | - |
* Rain latest hour (hover to see other rain measurements)
** Current wind speed in m/s (hover to see current wind gust speed)